| time (UTC) | temp C | wind direction | speed KPH | gust KPH | rain 1hr cm | rain 24hr cm | rain mn cm | humidity % | barometer mb |
| 20260503035044 | 7 | 0 | 0.0 | 0.0 | 0.00 | 0.46 | 0.00 | 99 | 1015.8 |
| 20260503033041 | 8 | 0 | 0.0 | 0.0 | 0.00 | 0.46 | 0.00 | 99 | 1015.8 |
| 20260503032042 | 8 | 0 | 0.0 | 0.0 | 0.00 | 0.46 | 0.00 | 99 | 1015.8 |
| 20260503031041 | 8 | 0 | 0.0 | 0.0 | 0.00 | 0.46 | 0.00 | 99 | 1015.6 |
| 20260503030043 | 8 | 0 | 0.0 | 0.0 | 0.00 | 0.46 | 0.00 | 99 | 1015.6 |
| 20260503025043 | 8 | 0 | 0.0 | 0.0 | 0.00 | 0.46 | 0.00 | 99 | 1015.5 |
| 20260503024045 | 8 | 0 | 0.0 | 0.0 | 0.00 | 0.46 | 0.00 | 99 | 1015.6 |
| 20260503023046 | 8 | 0 | 0.0 | 0.0 | 0.00 | 0.46 | 0.00 | 99 | 1015.6 |
| 20260503022044 | 8 | 0 | 0.0 | 0.0 | 0.00 | 0.46 | 0.00 | 99 | 1015.7 |
| 20260503021046 | 8 | 0 | 0.0 | 0.0 | 0.00 | 0.46 | 0.00 | 99 | 1015.7 |
| 20260503020043 | 8 | 0 | 0.0 | 0.0 | 0.00 | 0.46 | 0.00 | 99 | 1015.8 |
| 20260503015040 | 8 | 0 | 0.0 | 0.0 | 0.00 | 0.46 | 0.00 | 99 | 1015.9 |
| 20260503014043 | 8 | 0 | 0.0 | 0.0 | 0.00 | 0.46 | 0.00 | 99 | 1016.0 |
| 20260503013046 | 9 | 0 | 0.0 | 0.0 | 0.00 | 0.46 | 0.00 | 99 | 1016.0 |
| 20260503011043 | 9 | 0 | 0.0 | 0.0 | 0.00 | 0.46 | 0.00 | 99 | 1016.1 |
| 20260503010045 | 9 | 0 | 0.0 | 0.0 | 0.00 | 0.46 | 0.00 | 99 | 1016.2 |
| 20260503005048 | 9 | 0 | 0.0 | 0.0 | 0.00 | 0.46 | 0.00 | 99 | 1016.2 |
| 20260503004044 | 9 | 0 | 0.0 | 0.0 | 0.00 | 0.46 | 0.00 | 99 | 1016.3 |
| 20260503001046 | 10 | 0 | 0.0 | 0.0 | 0.00 | 0.46 | 0.00 | 99 | 1016.5 |
| 20260503000056 | 10 | 0 | 0.0 | 0.0 | 0.00 | 0.46 | 0.00 | 99 | 1016.6 |
| 20260502235056 | 10 | 0 | 0.0 | 0.0 | 0.00 | 0.46 | 0.00 | 99 | 1016.7 |
| 20260502234054 | 10 | 0 | 0.0 | 0.0 | 0.00 | 0.46 | 0.00 | 99 | 1016.7 |
| 20260502233054 | 10 | 0 | 0.0 | 0.0 | 0.00 | 0.46 | 0.00 | 99 | 1016.7 |
| 20260502232057 | 10 | 0 | 0.0 | 0.0 | 0.00 | 0.46 | 0.00 | 99 | 1016.8 |
| 20260502231052 | 10 | 0 | 0.0 | 0.0 | 0.00 | 0.46 | 0.00 | 99 | 1016.8 |
| 20260502224053 | 10 | 0 | 0.0 | 0.0 | 0.00 | 0.46 | 0.00 | 99 | 1017.0 |
| 20260502223056 | 10 | 0 | 0.0 | 0.0 | 0.00 | 0.46 | 0.00 | 99 | 1016.9 |
| 20260502221055 | 10 | 0 | 0.0 | 0.0 | 0.00 | 0.46 | 0.00 | 99 | 1017.0 |
| 20260502220052 | 10 | 0 | 0.0 | 0.0 | 0.00 | 0.46 | 0.00 | 99 | 1017.0 |
| 20260502215103 | 10 | 0 | 0.0 | 0.0 | 0.00 | 0.46 | 0.46 | 98 | 1017.1 |
| 20260502214059 | 10 | 0 | 0.0 | 0.0 | 0.00 | 0.46 | 0.46 | 98 | 1017.0 |
| 20260502213059 | 10 | 0 | 0.0 | 0.0 | 0.00 | 0.46 | 0.46 | 98 | 1017.0 |
| 20260502212059 | 11 | 0 | 0.0 | 0.0 | 0.00 | 0.46 | 0.46 | 98 | 1017.0 |
| 20260502211059 | 11 | 0 | 0.0 | 0.0 | 0.00 | 0.46 | 0.46 | 98 | 1016.9 |
| 20260502210057 | 11 | 0 | 0.0 | 0.0 | 0.00 | 0.46 | 0.46 | 98 | 1016.9 |
| 20260502204100 | 11 | 0 | 0.0 | 0.0 | 0.00 | 0.46 | 0.46 | 98 | 1016.8 |
| 20260502202105 | 12 | 0 | 0.0 | 0.0 | 0.00 | 0.46 | 0.46 | 98 | 1016.9 |
| 20260502200103 | 12 | 0 | 0.0 | 0.0 | 0.00 | 0.46 | 0.46 | 98 | 1016.9 |
| 20260502195052 | 12 | 0 | 0.0 | 0.0 | 0.00 | 0.46 | 0.46 | 98 | 1016.9 |
| 20260502194051 | 12 | 0 | 0.0 | 0.0 | 0.00 | 0.46 | 0.46 | 98 | 1016.9 |
| 20260502193058 | 13 | 0 | 0.0 | 0.0 | 0.00 | 0.46 | 0.46 | 97 | 1016.9 |
| 20260502190059 | 13 | 0 | 0.0 | 0.0 | 0.00 | 0.46 | 0.46 | 97 | 1016.6 |
| 20260502185058 | 13 | 0 | 0.0 | 0.0 | 0.00 | 0.46 | 0.46 | 97 | 1016.8 |
| 20260502184056 | 13 | 0 | 0.0 | 0.0 | 0.00 | 0.46 | 0.46 | 97 | 1017.0 |
| 20260502183057 | 13 | 0 | 0.0 | 0.0 | 0.00 | 0.46 | 0.46 | 97 | 1017.1 |
| 20260502182054 | 13 | 0 | 0.0 | 0.0 | 0.00 | 0.46 | 0.46 | 97 | 1017.2 |
| 20260502181055 | 13 | 0 | 0.0 | 0.0 | 0.03 | 0.46 | 0.46 | 96 | 1017.1 |
| 20260502164052 | 15 | 0 | 0.0 | 0.0 | 0.33 | 0.33 | 0.33 | 75 | 1017.1 |
| 20260502163051 | 17 | 0 | 0.0 | 0.0 | 0.25 | 0.25 | 0.25 | 74 | 1016.7 |
| 20260502162053 | 18 | 0 | 0.0 | 0.0 | 0.13 | 0.13 | 0.13 | 68 | 1016.1 |
| 20260502161053 | 20 | 0 | 0.0 | 0.0 | 0.00 | 0.00 | 0.00 | 55 | 1015.8 |
| 20260502152052 | 21 | 0 | 0.0 | 0.0 | 0.00 | 0.00 | 0.00 | 50 | 1016.1 |
| 20260502151046 | 21 | 0 | 0.0 | 0.0 | 0.00 | 0.00 | 0.00 | 50 | 1016.2 |
| 20260502122048 | 20 | 0 | 0.0 | 0.0 | 0.00 | 0.00 | 0.00 | 56 | 1018.7 |
| 20260502115046 | 19 | 0 | 0.0 | 0.0 | 0.00 | 0.00 | 0.00 | 57 | 1019.3 |
| 20260502114047 | 20 | 0 | 0.0 | 0.0 | 0.00 | 0.00 | 0.00 | 54 | 1019.2 |
| 20260502113048 | 20 | 0 | 0.0 | 0.0 | 0.00 | 0.00 | 0.00 | 52 | 1019.1 |
| 20260502112049 | 20 | 0 | 0.0 | 0.0 | 0.00 | 0.00 | 0.00 | 53 | 1019.1 |
| 20260502111049 | 20 | 0 | 0.0 | 0.0 | 0.00 | 0.00 | 0.00 | 53 | 1019.3 |
| 20260502110044 | 20 | 0 | 0.0 | 0.0 | 0.00 | 0.00 | 0.00 | 52 | 1019.2 |
| 20260502105049 | 21 | 0 | 0.0 | 0.0 | 0.00 | 0.00 | 0.00 | 52 | 1019.3 |
| 20260502104046 | 20 | 0 | 0.0 | 0.0 | 0.00 | 0.00 | 0.00 | 53 | 1019.6 |
| 20260502103048 | 20 | 0 | 0.0 | 0.0 | 0.00 | 0.00 | 0.00 | 52 | 1019.7 |
| 20260502102049 | 20 | 0 | 0.0 | 0.0 | 0.00 | 0.00 | 0.00 | 53 | 1019.8 |
| 20260502071045 | 13 | 0 | 0.0 | 0.0 | 0.00 | 0.00 | 0.00 | 56 | 1021.8 |
| 20260502070041 | 12 | 0 | 0.0 | 0.0 | 0.00 | 0.00 | 0.00 | 57 | 1022.1 |
| 20260502065046 | 12 | 0 | 0.0 | 0.0 | 0.00 | 0.00 | 0.00 | 59 | 1022.3 |
| 20260502064047 | 12 | 0 | 0.0 | 0.0 | 0.00 | 0.00 | 0.00 | 60 | 1022.4 |
| 20260502062047 | 11 | 0 | 0.0 | 0.0 | 0.00 | 0.00 | 0.00 | 63 | 1022.7 |
| 20260502061043 | 11 | 0 | 0.0 | 0.0 | 0.00 | 0.00 | 0.00 | 63 | 1022.7 |
| 20260502060048 | 11 | 0 | 0.0 | 0.0 | 0.00 | 0.00 | 0.00 | 65 | 1022.8 |
| 20260502055044 | 11 | 0 | 0.0 | 0.0 | 0.00 | 0.00 | 0.00 | 65 | 1022.9 |
| 20260502054045 | 10 | 0 | 0.0 | 0.0 | 0.00 | 0.00 | 0.00 | 64 | 1023.0 |
| 20260502053045 | 10 | 0 | 0.0 | 0.0 | 0.00 | 0.00 | 0.00 | 67 | 1023.0 |
| 20260502052046 | 9 | 0 | 0.0 | 0.0 | 0.00 | 0.00 | 0.00 | 67 | 1023.1 |
| 20260502051042 | 7 | 0 | 0.0 | 0.0 | 0.00 | 0.00 | 0.00 | 68 | 1023.3 |
| 20260502045043 | 6 | 0 | 0.0 | 0.0 | 0.00 | 0.00 | 0.00 | 75 | 1023.6 |
| 20260502043045 | 5 | 0 | 0.0 | 0.0 | 0.00 | 0.00 | 0.00 | 75 | 1023.8 |
| 20260502042038 | 5 | 0 | 0.0 | 0.0 | 0.00 | 0.00 | 0.00 | 74 | 1023.6 |
| 20260502041041 | 5 | 0 | 0.0 | 0.0 | 0.00 | 0.00 | 0.00 | 73 | 1023.7 |
| 20260502040045 | 5 | 0 | 0.0 | 0.0 | 0.00 | 0.00 | 0.00 | 73 | 1023.9 |